Year,Month,Day,Hour,Minute,Value (Times are PST for temperature in C)
2018,04,26,00,00,9.20
2018,04,26,00,01,9.20
2018,04,26,00,02,9.20
2018,04,26,00,03,9.20
2018,04,26,00,04,9.20
2018,04,26,00,05,9.20
2018,04,26,00,06,9.10
2018,04,26,00,07,9.10
2018,04,26,00,08,9.10
2018,04,26,00,09,9.10
2018,04,26,00,10,9.10
2018,04,26,00,11,9.10
2018,04,26,00,12,9.00
2018,04,26,00,13,9.00
2018,04,26,00,14,9.00
2018,04,26,00,15,9.00
2018,04,26,00,16,9.00
2018,04,26,00,17,8.90
2018,04,26,00,18,8.90
2018,04,26,00,19,8.90
2018,04,26,00,20,8.90
2018,04,26,00,21,8.90
2018,04,26,00,22,8.90
2018,04,26,00,23,8.90
2018,04,26,00,24,8.90
2018,04,26,00,25,8.80
2018,04,26,00,26,8.80
2018,04,26,00,27,8.80
2018,04,26,00,28,8.80
2018,04,26,00,29,8.80
2018,04,26,00,30,8.70
2018,04,26,00,31,8.70
2018,04,26,00,32,8.70
2018,04,26,00,33,8.70
2018,04,26,00,34,8.70
2018,04,26,00,35,8.70
2018,04,26,00,36,8.70
2018,04,26,00,37,8.70
2018,04,26,00,38,8.70
2018,04,26,00,39,8.70
2018,04,26,00,40,8.70
2018,04,26,00,41,8.70
2018,04,26,00,42,8.70
2018,04,26,00,43,8.70
2018,04,26,00,44,8.70
2018,04,26,00,45,8.70
2018,04,26,00,46,8.70
2018,04,26,00,47,8.70
2018,04,26,00,48,8.70
2018,04,26,00,49,8.70
2018,04,26,00,50,8.70
2018,04,26,00,51,8.60
2018,04,26,00,52,8.60
2018,04,26,00,53,8.60
2018,04,26,00,54,8.60
2018,04,26,00,55,8.60
2018,04,26,00,56,8.60
2018,04,26,00,57,8.60
2018,04,26,00,58,8.50
2018,04,26,00,59,8.50
2018,04,26,01,00,8.50
2018,04,26,01,01,8.40
2018,04,26,01,02,8.40
2018,04,26,01,03,8.40
2018,04,26,01,04,8.30
2018,04,26,01,05,8.30
2018,04,26,01,06,8.30
2018,04,26,01,07,8.30
2018,04,26,01,08,8.30
2018,04,26,01,09,8.20
2018,04,26,01,10,8.20
2018,04,26,01,11,8.20
2018,04,26,01,12,8.20
2018,04,26,01,13,8.20
2018,04,26,01,14,8.20
2018,04,26,01,15,8.20
2018,04,26,01,16,8.30
2018,04,26,01,17,8.30
2018,04,26,01,18,8.30
2018,04,26,01,19,8.30
2018,04,26,01,20,8.30
2018,04,26,01,21,8.30
2018,04,26,01,22,8.30
2018,04,26,01,23,8.30
2018,04,26,01,24,8.30
2018,04,26,01,25,8.20
2018,04,26,01,26,8.20
2018,04,26,01,27,8.20
2018,04,26,01,28,8.20
2018,04,26,01,29,8.10
2018,04,26,01,30,8.10
2018,04,26,01,31,8.10
2018,04,26,01,32,8.10
2018,04,26,01,33,8.10
2018,04,26,01,34,8.10
2018,04,26,01,35,8.10
2018,04,26,01,36,8.10
2018,04,26,01,37,8.10
2018,04,26,01,38,8.10
2018,04,26,01,39,8.10
2018,04,26,01,40,8.10
2018,04,26,01,41,8.00
2018,04,26,01,42,8.00
2018,04,26,01,43,8.00
2018,04,26,01,44,8.00
2018,04,26,01,45,7.90
2018,04,26,01,46,7.90
2018,04,26,01,47,7.90
2018,04,26,01,48,7.90
2018,04,26,01,49,7.90
2018,04,26,01,50,7.90
2018,04,26,01,51,7.90
2018,04,26,01,52,7.90
2018,04,26,01,53,7.80
2018,04,26,01,54,7.80
2018,04,26,01,55,7.80
2018,04,26,01,56,7.80
2018,04,26,01,57,7.80
2018,04,26,01,58,7.80
2018,04,26,01,59,7.80
2018,04,26,02,00,7.80
2018,04,26,02,01,7.80
2018,04,26,02,02,7.70
2018,04,26,02,03,7.70
2018,04,26,02,04,7.70
2018,04,26,02,05,7.70
2018,04,26,02,06,7.70
2018,04,26,02,07,7.70
2018,04,26,02,08,7.70
2018,04,26,02,09,7.70
2018,04,26,02,10,7.70
2018,04,26,02,11,7.60
2018,04,26,02,12,7.60
2018,04,26,02,13,7.60
2018,04,26,02,14,7.60
2018,04,26,02,15,7.60
2018,04,26,02,16,7.60
2018,04,26,02,17,7.60
2018,04,26,02,18,7.60
2018,04,26,02,19,7.60
2018,04,26,02,20,7.60
2018,04,26,02,21,7.60
2018,04,26,02,22,7.60
2018,04,26,02,23,7.50
2018,04,26,02,24,7.50
2018,04,26,02,25,7.50
2018,04,26,02,26,7.40
2018,04,26,02,27,7.40
2018,04,26,02,28,7.50
2018,04,26,02,29,7.50
2018,04,26,02,30,7.50
2018,04,26,02,31,7.40
2018,04,26,02,32,7.40
2018,04,26,02,33,7.40
2018,04,26,02,34,7.40
2018,04,26,02,35,7.40
2018,04,26,02,36,7.40
2018,04,26,02,37,7.40
2018,04,26,02,38,7.40
2018,04,26,02,39,7.40
2018,04,26,02,40,7.30
2018,04,26,02,41,7.30
2018,04,26,02,42,7.30
2018,04,26,02,43,7.30
2018,04,26,02,44,7.30
2018,04,26,02,45,7.30
2018,04,26,02,46,7.30
2018,04,26,02,47,7.30
2018,04,26,02,48,7.30
2018,04,26,02,49,7.30
2018,04,26,02,50,7.20
2018,04,26,02,51,7.20
2018,04,26,02,52,7.20
2018,04,26,02,53,7.20
2018,04,26,02,54,7.20
2018,04,26,02,55,7.20
2018,04,26,02,56,7.20
2018,04,26,02,57,7.20
2018,04,26,02,58,7.20
2018,04,26,02,59,7.20
2018,04,26,03,00,7.20
2018,04,26,03,01,7.20
2018,04,26,03,02,7.20
2018,04,26,03,06,7.10
2018,04,26,03,07,7.10
2018,04,26,03,08,7.10
2018,04,26,03,09,7.00
2018,04,26,03,10,7.00
2018,04,26,03,11,7.00
2018,04,26,03,12,7.00
2018,04,26,03,13,6.90
2018,04,26,03,14,6.90
2018,04,26,03,15,6.90
2018,04,26,03,16,6.90
2018,04,26,03,17,6.90
2018,04,26,03,18,6.90
2018,04,26,03,19,6.90
2018,04,26,03,20,6.90
2018,04,26,03,21,6.90
2018,04,26,03,22,6.90
2018,04,26,03,23,6.90
2018,04,26,03,24,6.90
2018,04,26,03,25,6.80
2018,04,26,03,26,6.80
2018,04,26,03,27,6.80
2018,04,26,03,28,6.80
2018,04,26,03,29,6.80
2018,04,26,03,30,6.70
2018,04,26,03,31,6.70
2018,04,26,03,32,6.70
2018,04,26,03,33,6.70
2018,04,26,03,34,6.70
2018,04,26,03,35,6.70
2018,04,26,03,36,6.70
2018,04,26,03,37,6.70
2018,04,26,03,38,6.60
2018,04,26,03,39,6.60
2018,04,26,03,40,6.60
2018,04,26,03,41,6.60
2018,04,26,03,42,6.60
2018,04,26,03,43,6.60
2018,04,26,03,44,6.60
2018,04,26,03,45,6.60
2018,04,26,03,46,6.60
2018,04,26,03,47,6.70
2018,04,26,03,48,6.70
2018,04,26,03,49,6.70
2018,04,26,03,50,6.70
2018,04,26,03,51,6.70
2018,04,26,03,52,6.70
2018,04,26,03,53,6.70
2018,04,26,03,54,6.70
2018,04,26,03,55,6.70
2018,04,26,03,56,6.70
2018,04,26,03,57,6.60
2018,04,26,03,58,6.60
2018,04,26,03,59,6.60
2018,04,26,04,00,6.60
2018,04,26,04,01,6.60
2018,04,26,04,02,6.60
2018,04,26,04,03,6.50
2018,04,26,04,04,6.50
2018,04,26,04,05,6.50
2018,04,26,04,06,6.50
2018,04,26,04,07,6.50
2018,04,26,04,08,6.50
2018,04,26,04,09,6.50
2018,04,26,04,10,6.50
2018,04,26,04,11,6.50
2018,04,26,04,12,6.50
2018,04,26,04,13,6.40
2018,04,26,04,14,6.40
2018,04,26,04,15,6.40
2018,04,26,04,16,6.40
2018,04,26,04,17,6.30
2018,04,26,04,18,6.30
2018,04,26,04,19,6.30
2018,04,26,04,20,6.30
2018,04,26,04,21,6.30
2018,04,26,04,22,6.30
2018,04,26,04,23,6.30
2018,04,26,04,24,6.30
2018,04,26,04,25,6.30
2018,04,26,04,26,6.30
2018,04,26,04,27,6.30
2018,04,26,04,28,6.30
2018,04,26,04,29,6.30
2018,04,26,04,30,6.30
2018,04,26,04,31,6.30
2018,04,26,04,32,6.30
2018,04,26,04,33,6.20
2018,04,26,04,34,6.20
2018,04,26,04,35,6.20
2018,04,26,04,36,6.20
2018,04,26,04,37,6.20
2018,04,26,04,38,6.10
2018,04,26,04,39,6.10
2018,04,26,04,40,6.10
2018,04,26,04,41,6.10
2018,04,26,04,42,6.10
2018,04,26,04,43,6.10
2018,04,26,04,44,6.10
2018,04,26,04,45,6.10
2018,04,26,04,46,6.00
2018,04,26,04,47,6.00
2018,04,26,04,48,6.00
2018,04,26,04,49,6.00
2018,04,26,04,50,6.00
2018,04,26,04,51,6.00
2018,04,26,04,52,6.00
2018,04,26,04,53,6.00
2018,04,26,04,54,6.00
2018,04,26,04,55,6.00
2018,04,26,04,56,6.00
2018,04,26,04,57,6.00
2018,04,26,04,58,5.90
2018,04,26,04,59,5.90
2018,04,26,05,00,5.90
2018,04,26,05,01,5.90
2018,04,26,05,02,5.90
2018,04,26,05,03,5.90
2018,04,26,05,04,5.90
2018,04,26,05,05,5.90
2018,04,26,05,06,5.90
2018,04,26,05,07,5.90
2018,04,26,05,08,5.90
2018,04,26,05,09,5.90
2018,04,26,05,10,5.90
2018,04,26,05,11,5.90
2018,04,26,05,12,5.90
2018,04,26,05,13,5.90
2018,04,26,05,14,5.90
2018,04,26,05,15,5.90
2018,04,26,05,16,5.80
2018,04,26,05,17,5.80
2018,04,26,05,18,5.80
2018,04,26,05,19,5.80
2018,04,26,05,20,5.80
2018,04,26,05,21,5.80
2018,04,26,05,22,5.70
2018,04,26,05,23,5.70
2018,04,26,05,24,5.70
2018,04,26,05,25,5.70
2018,04,26,05,26,5.70
2018,04,26,05,27,5.70
2018,04,26,05,28,5.70
2018,04,26,05,29,5.70
2018,04,26,05,30,5.70
2018,04,26,05,31,5.70
2018,04,26,05,32,5.70
2018,04,26,05,33,5.70
2018,04,26,05,34,5.70
2018,04,26,05,35,5.80
2018,04,26,05,36,5.80
2018,04,26,05,37,5.70
2018,04,26,05,38,5.70
2018,04,26,05,39,5.70
2018,04,26,05,40,5.70
2018,04,26,05,41,5.60
2018,04,26,05,42,5.60
2018,04,26,05,43,5.60
2018,04,26,05,44,5.60
2018,04,26,05,45,5.60
2018,04,26,05,46,5.60
2018,04,26,05,47,5.60
2018,04,26,05,48,5.60
2018,04,26,05,49,5.60
2018,04,26,05,50,5.60
2018,04,26,05,51,5.50
2018,04,26,05,52,5.60
2018,04,26,05,53,5.60
2018,04,26,05,54,5.60
2018,04,26,05,55,5.60
2018,04,26,05,56,5.60
2018,04,26,05,57,5.60
2018,04,26,05,58,5.60
2018,04,26,05,59,5.60
2018,04,26,06,00,5.60
2018,04,26,06,01,5.60
2018,04,26,06,02,5.50
2018,04,26,06,03,5.50
2018,04,26,06,04,5.50
2018,04,26,06,05,5.50
2018,04,26,06,06,5.50
2018,04,26,06,07,5.50
2018,04,26,06,08,5.40
2018,04,26,06,09,5.40
2018,04,26,06,10,5.40
2018,04,26,06,11,5.40
2018,04,26,06,12,5.40
2018,04,26,06,13,5.40
2018,04,26,06,14,5.40
2018,04,26,06,15,5.40
2018,04,26,06,16,5.40
2018,04,26,06,17,5.50
2018,04,26,06,18,5.50
2018,04,26,06,19,5.50
2018,04,26,06,20,5.50
2018,04,26,06,21,5.60
2018,04,26,06,22,5.60
2018,04,26,06,23,5.60
2018,04,26,06,24,5.60
2018,04,26,06,25,5.60
2018,04,26,06,26,5.50
2018,04,26,06,27,5.50
2018,04,26,06,28,5.50
2018,04,26,06,29,5.50
2018,04,26,06,30,5.50
2018,04,26,06,31,5.50
2018,04,26,06,32,5.50
2018,04,26,06,33,5.50
2018,04,26,06,34,5.50
2018,04,26,06,35,5.50
2018,04,26,06,36,5.50
2018,04,26,06,37,5.60
2018,04,26,06,38,5.60
2018,04,26,06,39,5.60
2018,04,26,06,40,5.70
2018,04,26,06,41,5.70
2018,04,26,06,42,5.70
2018,04,26,06,43,5.70
2018,04,26,06,44,5.80
2018,04,26,06,45,5.80
2018,04,26,06,46,5.80
2018,04,26,06,47,5.80
2018,04,26,06,48,5.90
2018,04,26,06,49,5.90
2018,04,26,06,50,5.90
2018,04,26,06,51,6.00
2018,04,26,06,52,6.00
2018,04,26,06,53,6.00
2018,04,26,06,54,6.00
2018,04,26,06,55,6.00
2018,04,26,06,56,6.00
2018,04,26,06,57,6.00
2018,04,26,06,58,6.00
2018,04,26,06,59,6.00
2018,04,26,07,00,6.00
2018,04,26,07,01,6.10
2018,04,26,07,02,6.10
2018,04,26,07,03,6.10
2018,04,26,07,04,6.10
2018,04,26,07,05,6.10
2018,04,26,07,06,6.10
2018,04,26,07,07,6.20
2018,04,26,07,08,6.20
2018,04,26,07,09,6.20
2018,04,26,07,10,6.20
2018,04,26,07,11,6.20
2018,04,26,07,12,6.30
2018,04,26,07,13,6.30
2018,04,26,07,14,6.30
2018,04,26,07,15,6.30
2018,04,26,07,16,6.30
2018,04,26,07,17,6.30
2018,04,26,07,18,6.30
2018,04,26,07,19,6.40
2018,04,26,07,20,6.40
2018,04,26,07,21,6.40
2018,04,26,07,22,6.40
2018,04,26,07,23,6.50
2018,04,26,07,24,6.50
2018,04,26,07,25,6.60
2018,04,26,07,26,6.60
2018,04,26,07,27,6.70
2018,04,26,07,28,6.70
2018,04,26,07,29,6.80
2018,04,26,07,30,6.80
2018,04,26,07,31,6.80
2018,04,26,07,32,6.90
2018,04,26,07,33,6.90
2018,04,26,07,34,7.00
2018,04,26,07,35,7.10
2018,04,26,07,36,7.20
2018,04,26,07,37,7.30
2018,04,26,07,38,7.40
2018,04,26,07,39,7.50
2018,04,26,07,40,7.60
2018,04,26,07,41,7.70
2018,04,26,07,42,7.80
2018,04,26,07,43,7.80
2018,04,26,07,44,8.00
2018,04,26,07,45,8.10
2018,04,26,07,46,8.20
2018,04,26,07,47,8.30
2018,04,26,07,48,8.40
2018,04,26,07,49,8.50
2018,04,26,07,50,8.60
2018,04,26,07,51,8.70
2018,04,26,07,52,8.70
2018,04,26,07,53,8.80
2018,04,26,07,54,8.90
2018,04,26,07,55,9.00
2018,04,26,07,56,9.00
2018,04,26,07,57,9.10
2018,04,26,07,58,9.20
2018,04,26,07,59,9.30
2018,04,26,08,00,9.30
2018,04,26,08,01,9.40
2018,04,26,08,02,9.50
2018,04,26,08,03,9.60
2018,04,26,08,04,9.70
2018,04,26,08,05,9.80
2018,04,26,08,06,9.80
2018,04,26,08,07,9.90
2018,04,26,08,08,10.00
2018,04,26,08,09,10.10
2018,04,26,08,10,10.20
2018,04,26,08,11,10.30
2018,04,26,08,12,10.30
2018,04,26,08,13,10.40
2018,04,26,08,14,10.50
2018,04,26,08,15,10.60
2018,04,26,08,16,10.70
2018,04,26,08,17,10.70
2018,04,26,08,18,10.80
2018,04,26,08,19,10.80
2018,04,26,08,20,10.90
2018,04,26,08,21,11.00
2018,04,26,08,22,11.00
2018,04,26,08,23,11.10
2018,04,26,08,24,11.20
2018,04,26,08,25,11.30
2018,04,26,08,26,11.40
2018,04,26,08,27,11.50
2018,04,26,08,28,11.60
2018,04,26,08,29,11.70
2018,04,26,08,30,11.80
2018,04,26,08,31,11.80
2018,04,26,08,32,11.90
2018,04,26,08,33,12.00
2018,04,26,08,34,12.10
2018,04,26,08,35,12.20
2018,04,26,08,36,12.30
2018,04,26,08,37,12.40
2018,04,26,08,38,12.50
2018,04,26,08,39,12.60
2018,04,26,08,40,12.70
2018,04,26,08,41,12.90
2018,04,26,08,42,13.00
2018,04,26,08,43,13.20
2018,04,26,08,44,13.40
2018,04,26,08,45,13.60
2018,04,26,08,46,13.70
2018,04,26,08,47,13.90
2018,04,26,08,48,14.00
2018,04,26,08,49,14.10
2018,04,26,08,50,14.20
2018,04,26,08,51,14.40
2018,04,26,08,52,14.50
2018,04,26,08,53,14.70
2018,04,26,08,54,14.90
2018,04,26,08,55,15.00
2018,04,26,08,56,15.10
2018,04,26,08,57,15.20
2018,04,26,08,58,15.30
2018,04,26,08,59,15.40
2018,04,26,09,00,15.50
2018,04,26,09,01,15.60
2018,04,26,09,02,15.70
2018,04,26,09,03,15.80
2018,04,26,09,04,15.90
2018,04,26,09,05,16.00
2018,04,26,09,06,16.10
2018,04,26,09,07,16.20
2018,04,26,09,08,16.30
2018,04,26,09,09,16.30
2018,04,26,09,10,16.40
2018,04,26,09,11,16.50
2018,04,26,09,12,16.60
2018,04,26,09,13,16.60
2018,04,26,09,14,16.70
2018,04,26,09,15,16.70
2018,04,26,09,16,16.80
2018,04,26,09,17,16.90
2018,04,26,09,18,16.90
2018,04,26,09,19,17.00
2018,04,26,09,20,17.10
2018,04,26,09,21,17.20
2018,04,26,09,22,17.30
2018,04,26,09,23,17.40
2018,04,26,09,24,17.40
2018,04,26,09,25,17.50
2018,04,26,09,26,17.60
2018,04,26,09,27,17.60
2018,04,26,09,28,17.60
2018,04,26,09,29,17.60
2018,04,26,09,30,17.70
2018,04,26,09,31,17.80
2018,04,26,09,32,17.90
2018,04,26,09,33,17.90
2018,04,26,09,34,18.00
2018,04,26,09,35,18.10
2018,04,26,09,36,18.10
2018,04,26,09,37,18.10
2018,04,26,09,38,18.10
2018,04,26,09,39,18.10
2018,04,26,09,40,18.10
2018,04,26,09,41,18.10
2018,04,26,09,42,18.10
2018,04,26,09,43,18.20
2018,04,26,09,44,18.20
2018,04,26,09,45,18.20
2018,04,26,09,46,18.20
2018,04,26,09,47,18.20
2018,04,26,09,48,18.30
2018,04,26,09,49,18.30
2018,04,26,09,50,18.40
2018,04,26,09,51,18.50
2018,04,26,09,52,18.50
2018,04,26,09,53,18.50
2018,04,26,09,54,18.40
2018,04,26,09,55,18.30
2018,04,26,09,56,18.20
2018,04,26,09,57,18.20
2018,04,26,09,58,18.20
2018,04,26,09,59,18.30
2018,04,26,10,00,18.30
2018,04,26,10,01,18.30
2018,04,26,10,02,18.30
2018,04,26,10,03,18.30
2018,04,26,10,04,18.40
2018,04,26,10,05,18.50
2018,04,26,10,06,18.60
2018,04,26,10,07,18.70
2018,04,26,10,08,18.80
2018,04,26,10,09,18.80
2018,04,26,10,10,18.90
2018,04,26,10,11,18.90
2018,04,26,10,12,18.80
2018,04,26,10,13,18.80
2018,04,26,10,14,18.80
2018,04,26,10,15,18.90
2018,04,26,10,16,18.90
2018,04,26,10,17,19.10
2018,04,26,10,18,19.20
2018,04,26,10,19,19.30
2018,04,26,10,20,19.50
2018,04,26,10,21,19.50
2018,04,26,10,22,19.50
2018,04,26,10,23,19.60
2018,04,26,10,24,19.60
2018,04,26,10,25,19.60
2018,04,26,10,26,19.60
2018,04,26,10,27,19.60
2018,04,26,10,28,19.70
2018,04,26,10,29,19.70
2018,04,26,10,30,19.80
2018,04,26,10,31,19.90
2018,04,26,10,32,20.00
2018,04,26,10,33,20.00
2018,04,26,10,34,20.10
2018,04,26,10,35,20.00
2018,04,26,10,36,19.90
2018,04,26,10,37,19.90
2018,04,26,10,38,20.00
2018,04,26,10,39,20.10
2018,04,26,10,40,20.20
2018,04,26,10,41,20.20
2018,04,26,10,42,20.20
2018,04,26,10,43,20.10
2018,04,26,10,44,19.90
2018,04,26,10,45,19.90
2018,04,26,10,46,20.00
2018,04,26,10,47,20.10
2018,04,26,10,48,20.20
2018,04,26,10,49,20.30
2018,04,26,10,50,20.30
2018,04,26,10,51,20.30
2018,04,26,10,52,20.30
2018,04,26,10,53,20.30
2018,04,26,10,54,20.30
2018,04,26,10,55,20.40
2018,04,26,10,56,20.40
2018,04,26,10,57,20.50
2018,04,26,10,58,20.60
2018,04,26,10,59,20.80
2018,04,26,11,00,20.80
2018,04,26,11,01,20.80
2018,04,26,11,02,20.90
2018,04,26,11,03,21.00
2018,04,26,11,04,21.10
2018,04,26,11,05,21.20
2018,04,26,11,06,21.20
2018,04,26,11,07,21.20
2018,04,26,11,08,21.20
2018,04,26,11,09,21.20
2018,04,26,11,10,21.20
2018,04,26,11,11,21.20
2018,04,26,11,12,21.10
2018,04,26,11,13,21.00
2018,04,26,11,14,20.70
2018,04,26,11,15,20.50
2018,04,26,11,16,20.40
2018,04,26,11,17,20.40
2018,04,26,11,18,20.50
2018,04,26,11,19,20.60
2018,04,26,11,20,20.70
2018,04,26,11,21,20.70
2018,04,26,11,22,20.70
2018,04,26,11,23,20.80
2018,04,26,11,24,20.90
2018,04,26,11,25,21.00
2018,04,26,11,26,21.00
2018,04,26,11,27,20.90
2018,04,26,11,28,20.90
2018,04,26,11,29,20.90
2018,04,26,11,30,21.00
2018,04,26,11,31,21.00
2018,04,26,11,32,21.00
2018,04,26,11,33,21.00
2018,04,26,11,34,21.00
2018,04,26,11,35,21.10
2018,04,26,11,36,21.30
2018,04,26,11,37,21.50
2018,04,26,11,38,21.60
2018,04,26,11,39,21.60
2018,04,26,11,40,21.70
2018,04,26,11,41,21.70
2018,04,26,11,42,21.80
2018,04,26,11,43,21.80
2018,04,26,11,44,21.90
2018,04,26,11,45,22.10
2018,04,26,11,46,22.20
2018,04,26,11,47,22.20
2018,04,26,11,48,22.30
2018,04,26,11,49,22.30
2018,04,26,11,50,22.30
2018,04,26,11,51,22.40
2018,04,26,11,52,22.40
2018,04,26,11,53,22.40
2018,04,26,11,54,22.40
2018,04,26,11,55,22.30
2018,04,26,11,56,22.20
2018,04,26,11,57,22.10
2018,04,26,11,58,22.00
2018,04,26,11,59,22.00
2018,04,26,12,00,22.00
2018,04,26,12,01,22.00
2018,04,26,12,02,22.00
2018,04,26,12,03,21.90
2018,04,26,12,04,21.90
2018,04,26,12,05,21.90
2018,04,26,12,06,21.90
2018,04,26,12,07,22.00
2018,04,26,12,08,22.00
2018,04,26,12,09,21.90
2018,04,26,12,10,21.80
2018,04,26,12,11,21.80
2018,04,26,12,12,21.80
2018,04,26,12,13,21.80
2018,04,26,12,14,21.80
2018,04,26,12,15,21.80
2018,04,26,12,16,21.80
2018,04,26,12,17,21.90
2018,04,26,12,18,21.90
2018,04,26,12,19,22.00
2018,04,26,12,20,22.10
2018,04,26,12,21,22.20
2018,04,26,12,22,22.30
2018,04,26,12,23,22.30
2018,04,26,12,24,22.40
2018,04,26,12,25,22.50
2018,04,26,12,26,22.60
2018,04,26,12,27,22.70
2018,04,26,12,28,22.60
2018,04,26,12,29,22.60
2018,04,26,12,30,22.50
2018,04,26,12,31,22.50
2018,04,26,12,32,22.60
2018,04,26,12,33,22.80
2018,04,26,12,34,22.90
2018,04,26,12,35,23.00
2018,04,26,12,36,23.10
2018,04,26,12,37,23.10
2018,04,26,12,38,23.20
2018,04,26,12,39,23.20
2018,04,26,12,40,23.10
2018,04,26,12,41,23.00
2018,04,26,12,42,23.00
2018,04,26,12,43,23.00
2018,04,26,12,44,23.00
2018,04,26,12,45,23.00
2018,04,26,12,46,22.90
2018,04,26,12,47,22.90
2018,04,26,12,48,22.80
2018,04,26,12,49,22.80
2018,04,26,12,50,22.80
2018,04,26,12,51,22.80
2018,04,26,12,52,22.90
2018,04,26,12,53,22.90
2018,04,26,12,54,22.90
2018,04,26,12,55,22.90
2018,04,26,12,56,22.90
2018,04,26,12,57,22.90
2018,04,26,12,58,23.00
2018,04,26,12,59,23.10
2018,04,26,13,00,23.20
2018,04,26,13,01,23.30
2018,04,26,13,02,23.50
2018,04,26,13,03,23.50
2018,04,26,13,04,23.50
2018,04,26,13,05,23.50
2018,04,26,13,06,23.60
2018,04,26,13,07,23.60
2018,04,26,13,08,23.50
2018,04,26,13,09,23.50
2018,04,26,13,10,23.50
2018,04,26,13,11,23.60
2018,04,26,13,12,23.60
2018,04,26,13,13,23.70
2018,04,26,13,14,23.70
2018,04,26,13,15,23.70
2018,04,26,13,16,23.70
2018,04,26,13,17,23.70
2018,04,26,13,18,23.70
2018,04,26,13,19,23.70
2018,04,26,13,20,23.70
2018,04,26,13,21,23.70
2018,04,26,13,22,23.70
2018,04,26,13,23,23.80
2018,04,26,13,24,23.70
2018,04,26,13,25,23.80
2018,04,26,13,26,23.70
2018,04,26,13,27,23.70
2018,04,26,13,28,23.70
2018,04,26,13,29,23.70
2018,04,26,13,30,23.80
2018,04,26,13,31,23.80
2018,04,26,13,32,23.90
2018,04,26,13,33,23.90
2018,04,26,13,34,24.00
2018,04,26,13,35,23.90
2018,04,26,13,36,23.80
2018,04,26,13,37,23.70
2018,04,26,13,38,23.70
2018,04,26,13,39,23.70
2018,04,26,13,40,23.70
2018,04,26,13,41,23.70
2018,04,26,13,42,23.70
2018,04,26,13,43,23.80
2018,04,26,13,44,23.80
2018,04,26,13,45,23.90
2018,04,26,13,46,24.10
2018,04,26,13,47,24.20
2018,04,26,13,48,24.20
2018,04,26,13,49,24.30
2018,04,26,13,50,24.30
2018,04,26,13,51,24.30
2018,04,26,13,52,24.20
2018,04,26,13,53,24.20
2018,04,26,13,54,24.20
2018,04,26,13,55,24.20
2018,04,26,13,56,24.20
2018,04,26,13,57,24.20
2018,04,26,13,58,24.10
2018,04,26,13,59,24.10
2018,04,26,14,00,24.00
2018,04,26,14,01,23.90
2018,04,26,14,02,23.90
2018,04,26,14,03,24.00
2018,04,26,14,04,24.00
2018,04,26,14,05,24.00
2018,04,26,14,06,24.10
2018,04,26,14,07,24.10
2018,04,26,14,08,24.00
2018,04,26,14,09,24.10
2018,04,26,14,10,24.20
2018,04,26,14,11,24.30
2018,04,26,14,12,24.40
2018,04,26,14,13,24.50
2018,04,26,14,14,24.50
2018,04,26,14,15,24.50
2018,04,26,14,16,24.50
2018,04,26,14,17,24.50
2018,04,26,14,18,24.60
2018,04,26,14,19,24.70
2018,04,26,14,20,24.70
2018,04,26,14,21,24.70
2018,04,26,14,22,24.70
2018,04,26,14,23,24.80
2018,04,26,14,24,24.70
2018,04,26,14,25,24.60
2018,04,26,14,26,24.50
2018,04,26,14,27,24.50
2018,04,26,14,28,24.60
2018,04,26,14,29,24.60
2018,04,26,14,30,24.50
2018,04,26,14,31,24.40
2018,04,26,14,32,24.30
2018,04,26,14,33,24.30
2018,04,26,14,34,24.30
2018,04,26,14,35,24.30
2018,04,26,14,36,24.30
2018,04,26,14,37,24.30
2018,04,26,14,38,24.20
2018,04,26,14,39,24.20
2018,04,26,14,40,24.20
2018,04,26,14,41,24.30
2018,04,26,14,42,24.20
2018,04,26,14,43,24.20
2018,04,26,14,44,24.20
2018,04,26,14,45,24.30
2018,04,26,14,46,24.30
2018,04,26,14,47,24.30
2018,04,26,14,48,24.30
2018,04,26,14,49,24.40
2018,04,26,14,50,24.40
2018,04,26,14,51,24.40
2018,04,26,14,52,24.40
2018,04,26,14,53,24.40
2018,04,26,14,54,24.50
2018,04,26,14,55,24.50
2018,04,26,14,56,24.50
2018,04,26,14,57,24.50
2018,04,26,14,58,24.60
2018,04,26,14,59,24.60
2018,04,26,15,00,24.60
2018,04,26,15,01,24.60
2018,04,26,15,02,24.60
2018,04,26,15,03,24.60
2018,04,26,15,04,24.60
2018,04,26,15,05,24.70
2018,04,26,15,06,24.70
2018,04,26,15,07,24.70
2018,04,26,15,08,24.70
2018,04,26,15,09,24.70
2018,04,26,15,10,24.70
2018,04,26,15,11,24.70
2018,04,26,15,12,24.70
2018,04,26,15,13,24.60
2018,04,26,15,14,24.70
2018,04,26,15,15,24.60
2018,04,26,15,16,24.60
2018,04,26,15,17,24.50
2018,04,26,15,18,24.40
2018,04,26,15,19,24.40
2018,04,26,15,20,24.40
2018,04,26,15,21,24.40
2018,04,26,15,22,24.40
2018,04,26,15,23,24.50
2018,04,26,15,24,24.60
2018,04,26,15,25,24.70
2018,04,26,15,26,24.80
2018,04,26,15,27,24.90
2018,04,26,15,28,25.00
2018,04,26,15,29,25.10
2018,04,26,15,30,25.00
2018,04,26,15,31,24.90
2018,04,26,15,32,24.90
2018,04,26,15,33,24.90
2018,04,26,15,34,25.00
2018,04,26,15,35,25.10
2018,04,26,15,36,25.20
2018,04,26,15,37,25.30
2018,04,26,15,38,25.40
2018,04,26,15,39,25.40
2018,04,26,15,40,25.40
2018,04,26,15,41,25.40
2018,04,26,15,42,25.40
2018,04,26,15,43,25.40
2018,04,26,15,44,25.50
2018,04,26,15,45,25.60
2018,04,26,15,46,25.60
2018,04,26,15,47,25.70
2018,04,26,15,48,25.80
2018,04,26,15,49,25.70
2018,04,26,15,50,25.70
2018,04,26,15,51,25.70
2018,04,26,15,52,25.70
2018,04,26,15,53,25.70
2018,04,26,15,54,25.70
2018,04,26,15,55,25.70
2018,04,26,15,56,25.80
2018,04,26,15,57,25.80
2018,04,26,15,58,25.80
2018,04,26,15,59,25.90
2018,04,26,16,00,25.90
2018,04,26,16,01,25.90
2018,04,26,16,02,25.80
2018,04,26,16,03,25.80
2018,04,26,16,04,25.80
2018,04,26,16,05,25.90
2018,04,26,16,06,25.90
2018,04,26,16,07,25.90
2018,04,26,16,08,25.90
2018,04,26,16,09,25.90
2018,04,26,16,10,25.80
2018,04,26,16,11,25.80
2018,04,26,16,12,25.80
2018,04,26,16,13,25.70
2018,04,26,16,14,25.70
2018,04,26,16,15,25.70
2018,04,26,16,16,25.60
2018,04,26,16,17,25.60
2018,04,26,16,18,25.60
2018,04,26,16,19,25.60
2018,04,26,16,20,25.50
2018,04,26,16,21,25.40
2018,04,26,16,22,25.40
2018,04,26,16,23,25.30
2018,04,26,16,24,25.30
2018,04,26,16,25,25.30
2018,04,26,16,26,25.30
2018,04,26,16,27,25.30
2018,04,26,16,28,25.30
2018,04,26,16,29,25.30
2018,04,26,16,30,25.30
2018,04,26,16,31,25.30
2018,04,26,16,32,25.30
2018,04,26,16,33,25.30
2018,04,26,16,34,25.30
2018,04,26,16,35,25.30
2018,04,26,16,36,25.20
2018,04,26,16,37,25.20
2018,04,26,16,38,25.10
2018,04,26,16,39,25.10
2018,04,26,16,40,25.20
2018,04,26,16,41,25.20
2018,04,26,16,42,25.20
2018,04,26,16,43,25.20
2018,04,26,16,44,25.20
2018,04,26,16,45,25.20
2018,04,26,16,46,25.20
2018,04,26,16,47,25.40
2018,04,26,16,48,25.50
2018,04,26,16,49,25.60
2018,04,26,16,50,25.60
2018,04,26,16,51,25.50
2018,04,26,16,52,25.40
2018,04,26,16,53,25.40
2018,04,26,16,54,25.40
2018,04,26,16,55,25.40
2018,04,26,16,56,25.30
2018,04,26,16,57,25.30
2018,04,26,16,58,25.30
2018,04,26,16,59,25.30
2018,04,26,17,00,25.30
2018,04,26,17,01,25.30
2018,04,26,17,02,25.30
2018,04,26,17,03,25.30
2018,04,26,17,04,25.30
2018,04,26,17,05,25.30
2018,04,26,17,06,25.30
2018,04,26,17,07,25.30
2018,04,26,17,08,25.30
2018,04,26,17,09,25.30
2018,04,26,17,10,25.30
2018,04,26,17,11,25.20
2018,04,26,17,12,25.20
2018,04,26,17,13,25.20
2018,04,26,17,14,25.20
2018,04,26,17,15,25.10
2018,04,26,17,16,25.10
2018,04,26,17,17,25.10
2018,04,26,17,18,25.10
2018,04,26,17,19,25.10
2018,04,26,17,20,25.10
2018,04,26,17,21,25.10
2018,04,26,17,22,25.10
2018,04,26,17,23,25.00
2018,04,26,17,24,25.00
2018,04,26,17,25,25.00
2018,04,26,17,26,25.00
2018,04,26,17,27,24.90
2018,04,26,17,28,24.90
2018,04,26,17,29,24.90
2018,04,26,17,30,24.80
2018,04,26,17,31,24.80
2018,04,26,17,32,24.80
2018,04,26,17,33,24.80
2018,04,26,17,34,24.80
2018,04,26,17,35,24.80
2018,04,26,17,36,24.80
2018,04,26,17,37,24.80
2018,04,26,17,38,24.80
2018,04,26,17,39,24.80
2018,04,26,17,40,24.80
2018,04,26,17,41,24.80
2018,04,26,17,42,24.80
2018,04,26,17,43,24.70